Year,Month,Day,Hour,Minute,Value (Times are PST for temperature in C)
2009,08,04,00,00,16.50
2009,08,04,00,05,16.60
2009,08,04,00,06,16.60
2009,08,04,00,07,16.60
2009,08,04,00,08,16.60
2009,08,04,00,09,16.60
2009,08,04,00,10,16.60
2009,08,04,00,11,16.60
2009,08,04,00,12,16.60
2009,08,04,00,13,16.60
2009,08,04,00,14,16.60
2009,08,04,00,15,16.60
2009,08,04,00,16,16.60
2009,08,04,00,17,16.60
2009,08,04,00,18,16.60
2009,08,04,00,19,16.50
2009,08,04,00,20,16.50
2009,08,04,00,21,16.50
2009,08,04,00,22,16.40
2009,08,04,00,23,16.40
2009,08,04,00,24,16.40
2009,08,04,00,25,16.40
2009,08,04,00,26,16.40
2009,08,04,00,27,16.50
2009,08,04,00,28,16.50
2009,08,04,00,29,16.50
2009,08,04,00,30,16.50
2009,08,04,00,31,16.50
2009,08,04,00,32,16.40
2009,08,04,00,33,16.40
2009,08,04,00,34,16.40
2009,08,04,00,35,16.40
2009,08,04,00,36,16.40
2009,08,04,00,37,16.40
2009,08,04,00,38,16.40
2009,08,04,00,39,16.40
2009,08,04,00,40,16.50
2009,08,04,00,41,16.50
2009,08,04,00,42,16.50
2009,08,04,00,43,16.50
2009,08,04,00,44,16.40
2009,08,04,00,45,16.40
2009,08,04,00,46,16.40
2009,08,04,00,47,16.40
2009,08,04,00,48,16.30
2009,08,04,00,49,16.30
2009,08,04,00,50,16.30
2009,08,04,00,51,16.30
2009,08,04,00,52,16.30
2009,08,04,00,53,16.30
2009,08,04,00,54,16.20
2009,08,04,00,55,16.20
2009,08,04,00,56,16.20
2009,08,04,00,57,16.20
2009,08,04,00,58,16.20
2009,08,04,00,59,16.20
2009,08,04,01,00,16.10
2009,08,04,01,01,16.10
2009,08,04,01,02,16.10
2009,08,04,01,03,16.00
2009,08,04,01,04,16.00
2009,08,04,01,05,16.00
2009,08,04,01,06,15.90
2009,08,04,01,07,16.00
2009,08,04,01,08,16.00
2009,08,04,01,09,16.00
2009,08,04,01,10,15.90
2009,08,04,01,11,15.90
2009,08,04,01,12,15.90
2009,08,04,01,13,15.90
2009,08,04,01,14,15.90
2009,08,04,01,15,15.80
2009,08,04,01,16,15.80
2009,08,04,01,17,15.80
2009,08,04,01,18,15.80
2009,08,04,01,19,15.70
2009,08,04,01,20,15.70
2009,08,04,01,21,15.70
2009,08,04,01,22,15.70
2009,08,04,01,23,15.60
2009,08,04,01,24,15.60
2009,08,04,01,25,15.60
2009,08,04,01,26,15.50
2009,08,04,01,27,15.50
2009,08,04,01,28,15.50
2009,08,04,01,29,15.40
2009,08,04,01,30,15.40
2009,08,04,01,31,15.40
2009,08,04,01,32,15.40
2009,08,04,01,33,15.40
2009,08,04,01,34,15.40
2009,08,04,01,35,15.40
2009,08,04,01,36,15.30
2009,08,04,01,37,15.30
2009,08,04,01,38,15.30
2009,08,04,01,39,15.30
2009,08,04,01,40,15.30
2009,08,04,01,41,15.20
2009,08,04,01,42,15.20
2009,08,04,01,43,15.20
2009,08,04,01,44,15.20
2009,08,04,01,45,15.20
2009,08,04,01,46,15.30
2009,08,04,01,47,15.30
2009,08,04,01,48,15.30
2009,08,04,01,49,15.30
2009,08,04,01,50,15.30
2009,08,04,01,51,15.30
2009,08,04,01,52,15.30
2009,08,04,01,53,15.30
2009,08,04,01,54,15.20
2009,08,04,01,55,15.20
2009,08,04,01,56,15.20
2009,08,04,01,57,15.10
2009,08,04,01,58,15.10
2009,08,04,01,59,15.00
2009,08,04,02,00,15.00
2009,08,04,02,01,15.00
2009,08,04,02,02,15.00
2009,08,04,02,03,15.00
2009,08,04,02,04,15.00
2009,08,04,02,05,15.00
2009,08,04,02,06,15.00
2009,08,04,02,07,15.00
2009,08,04,02,08,15.00
2009,08,04,02,09,15.00
2009,08,04,02,10,15.00
2009,08,04,02,11,15.00
2009,08,04,02,12,15.00
2009,08,04,02,13,15.00
2009,08,04,02,14,15.00
2009,08,04,02,15,15.00
2009,08,04,02,16,15.00
2009,08,04,02,17,15.00
2009,08,04,02,18,15.00
2009,08,04,02,19,15.00
2009,08,04,02,20,15.00
2009,08,04,02,21,15.00
2009,08,04,02,22,15.00
2009,08,04,02,23,15.00
2009,08,04,02,24,15.00
2009,08,04,02,25,15.00
2009,08,04,02,26,15.00
2009,08,04,02,27,15.00
2009,08,04,02,28,15.00
2009,08,04,02,29,15.00
2009,08,04,02,30,15.00
2009,08,04,02,31,15.00
2009,08,04,02,32,15.00
2009,08,04,02,33,15.00
2009,08,04,02,34,15.00
2009,08,04,02,35,15.00
2009,08,04,02,36,15.00
2009,08,04,02,37,15.00
2009,08,04,02,38,14.90
2009,08,04,02,39,14.90
2009,08,04,02,40,14.90
2009,08,04,02,41,14.90
2009,08,04,02,42,14.90
2009,08,04,02,43,14.90
2009,08,04,02,44,14.90
2009,08,04,02,45,14.90
2009,08,04,02,46,14.90
2009,08,04,02,47,14.80
2009,08,04,02,48,14.80
2009,08,04,02,49,14.80
2009,08,04,02,50,14.80
2009,08,04,02,51,14.70
2009,08,04,02,52,14.70
2009,08,04,02,53,14.60
2009,08,04,02,54,14.60
2009,08,04,02,55,14.60
2009,08,04,02,56,14.50
2009,08,04,02,57,14.50
2009,08,04,02,58,14.50
2009,08,04,02,59,14.50
2009,08,04,03,00,14.60
2009,08,04,03,01,14.60
2009,08,04,03,02,14.60
2009,08,04,03,03,14.60
2009,08,04,03,04,14.60
2009,08,04,03,05,14.60
2009,08,04,03,06,14.60
2009,08,04,03,07,14.60
2009,08,04,03,08,14.60
2009,08,04,03,09,14.60
2009,08,04,03,10,14.60
2009,08,04,03,11,14.60
2009,08,04,03,12,14.60
2009,08,04,03,13,14.60
2009,08,04,03,14,14.70
2009,08,04,03,15,14.70
2009,08,04,03,16,14.70
2009,08,04,03,17,14.70
2009,08,04,03,18,14.70
2009,08,04,03,19,14.70
2009,08,04,03,20,14.70
2009,08,04,03,21,14.70
2009,08,04,03,22,14.70
2009,08,04,03,23,14.70
2009,08,04,03,24,14.70
2009,08,04,03,25,14.70
2009,08,04,03,26,14.70
2009,08,04,03,27,14.70
2009,08,04,03,28,14.60
2009,08,04,03,29,14.60
2009,08,04,03,30,14.60
2009,08,04,03,31,14.50
2009,08,04,03,32,14.50
2009,08,04,03,33,14.50
2009,08,04,03,34,14.40
2009,08,04,03,35,14.40
2009,08,04,03,36,14.40
2009,08,04,03,37,14.30
2009,08,04,03,38,14.30
2009,08,04,03,39,14.30
2009,08,04,03,40,14.30
2009,08,04,03,41,14.30
2009,08,04,03,42,14.30
2009,08,04,03,43,14.20
2009,08,04,03,44,14.20
2009,08,04,03,45,14.20
2009,08,04,03,46,14.20
2009,08,04,03,47,14.20
2009,08,04,03,48,14.20
2009,08,04,03,49,14.20
2009,08,04,03,50,14.10
2009,08,04,03,51,14.10
2009,08,04,03,52,14.20
2009,08,04,03,53,14.20
2009,08,04,03,54,14.20
2009,08,04,03,55,14.20
2009,08,04,03,56,14.20
2009,08,04,03,57,14.30
2009,08,04,03,58,14.30
2009,08,04,03,59,14.30
2009,08,04,04,00,14.40
2009,08,04,04,01,14.40
2009,08,04,04,02,14.40
2009,08,04,04,03,14.40
2009,08,04,04,04,14.40
2009,08,04,04,05,14.40
2009,08,04,04,06,14.40
2009,08,04,04,07,14.40
2009,08,04,04,08,14.30
2009,08,04,04,09,14.30
2009,08,04,04,10,14.20
2009,08,04,04,11,14.20
2009,08,04,04,12,14.20
2009,08,04,04,13,14.20
2009,08,04,04,14,14.20
2009,08,04,04,15,14.30
2009,08,04,04,16,14.30
2009,08,04,04,17,14.40
2009,08,04,04,18,14.40
2009,08,04,04,19,14.40
2009,08,04,04,20,14.40
2009,08,04,04,21,14.40
2009,08,04,04,22,14.50
2009,08,04,04,23,14.50
2009,08,04,04,24,14.50
2009,08,04,04,25,14.50
2009,08,04,04,26,14.50
2009,08,04,04,27,14.40
2009,08,04,04,28,14.40
2009,08,04,04,29,14.30
2009,08,04,04,30,14.30
2009,08,04,04,31,14.20
2009,08,04,04,32,14.20
2009,08,04,04,33,14.20
2009,08,04,04,34,14.10
2009,08,04,04,35,14.10
2009,08,04,04,36,14.10
2009,08,04,04,37,14.10
2009,08,04,04,38,14.10
2009,08,04,04,39,14.00
2009,08,04,04,40,14.00
2009,08,04,04,41,13.90
2009,08,04,04,42,13.90
2009,08,04,04,43,13.80
2009,08,04,04,44,13.80
2009,08,04,04,45,13.80
2009,08,04,04,46,13.80
2009,08,04,04,47,13.80
2009,08,04,04,48,13.80
2009,08,04,04,49,13.90
2009,08,04,04,50,13.90
2009,08,04,04,51,14.00
2009,08,04,04,52,14.00
2009,08,04,04,53,14.00
2009,08,04,04,54,14.10
2009,08,04,04,55,14.10
2009,08,04,04,56,14.10
2009,08,04,04,57,14.20
2009,08,04,04,58,14.30
2009,08,04,04,59,14.40
2009,08,04,05,00,14.40
2009,08,04,05,01,14.40
2009,08,04,05,02,14.40
2009,08,04,05,03,14.30
2009,08,04,05,04,14.30
2009,08,04,05,05,14.30
2009,08,04,05,06,14.30
2009,08,04,05,07,14.30
2009,08,04,05,08,14.30
2009,08,04,05,09,14.30
2009,08,04,05,10,14.30
2009,08,04,05,11,14.30
2009,08,04,05,12,14.30
2009,08,04,05,13,14.20
2009,08,04,05,14,14.20
2009,08,04,05,15,14.20
2009,08,04,05,16,14.20
2009,08,04,05,17,14.20
2009,08,04,05,18,14.20
2009,08,04,05,19,14.20
2009,08,04,05,20,14.20
2009,08,04,05,21,14.30
2009,08,04,05,22,14.40
2009,08,04,05,23,14.40
2009,08,04,05,24,14.40
2009,08,04,05,25,14.40
2009,08,04,05,26,14.40
2009,08,04,05,27,14.40
2009,08,04,05,28,14.50
2009,08,04,05,29,14.50
2009,08,04,05,30,14.50
2009,08,04,05,31,14.50
2009,08,04,05,32,14.50
2009,08,04,05,33,14.50
2009,08,04,05,34,14.50
2009,08,04,05,35,14.60
2009,08,04,05,36,14.60
2009,08,04,05,37,14.60
2009,08,04,05,38,14.60
2009,08,04,05,39,14.70
2009,08,04,05,40,14.60
2009,08,04,05,41,14.60
2009,08,04,05,42,14.60
2009,08,04,05,43,14.60
2009,08,04,05,44,14.60
2009,08,04,05,45,14.60
2009,08,04,05,46,14.70
2009,08,04,05,47,14.70
2009,08,04,05,48,14.70
2009,08,04,05,49,14.70
2009,08,04,05,50,14.70
2009,08,04,05,51,14.70
2009,08,04,05,52,14.70
2009,08,04,05,53,14.70
2009,08,04,05,54,14.70
2009,08,04,05,55,14.80
2009,08,04,05,56,14.70
2009,08,04,05,57,14.80
2009,08,04,05,58,14.90
2009,08,04,05,59,14.90
2009,08,04,06,00,15.00
2009,08,04,06,01,15.00
2009,08,04,06,02,15.00
2009,08,04,06,03,14.90
2009,08,04,06,04,14.90
2009,08,04,06,05,14.90
2009,08,04,06,06,14.90
2009,08,04,06,07,14.90
2009,08,04,06,08,14.90
2009,08,04,06,09,14.90
2009,08,04,06,10,14.80
2009,08,04,06,11,14.80
2009,08,04,06,12,14.80
2009,08,04,06,13,14.80
2009,08,04,06,14,14.70
2009,08,04,06,15,14.70
2009,08,04,06,16,14.70
2009,08,04,06,17,14.70
2009,08,04,06,18,14.70
2009,08,04,06,19,14.60
2009,08,04,06,20,14.60
2009,08,04,06,21,14.60
2009,08,04,06,22,14.60
2009,08,04,06,23,14.60
2009,08,04,06,24,14.60
2009,08,04,06,25,14.60
2009,08,04,06,26,14.60
2009,08,04,06,27,14.50
2009,08,04,06,28,14.50
2009,08,04,06,29,14.50
2009,08,04,06,30,14.60
2009,08,04,06,31,14.60
2009,08,04,06,32,14.60
2009,08,04,06,33,14.60
2009,08,04,06,34,14.60
2009,08,04,06,35,14.60
2009,08,04,06,36,14.60
2009,08,04,06,37,14.60
2009,08,04,06,38,14.70
2009,08,04,06,39,14.70
2009,08,04,06,40,14.70
2009,08,04,06,41,14.70
2009,08,04,06,42,14.70
2009,08,04,06,43,14.80
2009,08,04,06,44,14.80
2009,08,04,06,45,14.80
2009,08,04,06,46,14.90
2009,08,04,06,47,15.00
2009,08,04,06,48,15.00
2009,08,04,06,49,14.90
2009,08,04,06,50,15.00
2009,08,04,06,51,15.00
2009,08,04,06,52,15.00
2009,08,04,06,53,15.00
2009,08,04,06,54,15.00
2009,08,04,06,55,15.00
2009,08,04,06,56,15.00
2009,08,04,06,57,15.00
2009,08,04,06,58,15.00
2009,08,04,06,59,15.00
2009,08,04,07,00,15.00
2009,08,04,07,01,15.00
2009,08,04,07,02,15.00
2009,08,04,07,03,15.00
2009,08,04,07,04,15.00
2009,08,04,07,05,15.00
2009,08,04,07,06,15.00
2009,08,04,07,07,15.00
2009,08,04,07,08,15.00
2009,08,04,07,09,15.00
2009,08,04,07,10,15.00
2009,08,04,07,11,15.00
2009,08,04,07,12,15.00
2009,08,04,07,13,15.00
2009,08,04,07,14,15.00
2009,08,04,07,15,15.00
2009,08,04,07,16,15.00
2009,08,04,07,17,15.00
2009,08,04,07,18,15.00
2009,08,04,07,19,15.00
2009,08,04,07,20,15.00
2009,08,04,07,21,15.10
2009,08,04,07,22,15.10
2009,08,04,07,23,15.20
2009,08,04,07,24,15.20
2009,08,04,07,25,15.30
2009,08,04,07,26,15.30
2009,08,04,07,27,15.30
2009,08,04,07,28,15.40
2009,08,04,07,29,15.40
2009,08,04,07,30,15.50
2009,08,04,07,31,15.50
2009,08,04,07,32,15.60
2009,08,04,07,33,15.60
2009,08,04,07,34,15.60
2009,08,04,07,35,15.70
2009,08,04,07,36,15.70
2009,08,04,07,37,15.70
2009,08,04,07,38,15.80
2009,08,04,07,39,15.80
2009,08,04,07,40,15.90
2009,08,04,07,41,15.90
2009,08,04,07,42,15.90
2009,08,04,07,43,16.00
2009,08,04,07,44,16.00
2009,08,04,07,45,16.10
2009,08,04,07,46,16.10
2009,08,04,07,47,16.20
2009,08,04,07,48,16.30
2009,08,04,07,49,16.40
2009,08,04,07,50,16.50
2009,08,04,07,51,16.60
2009,08,04,07,52,16.70
2009,08,04,07,53,16.70
2009,08,04,07,54,16.80
2009,08,04,07,55,16.90
2009,08,04,07,56,16.90
2009,08,04,07,57,17.00
2009,08,04,07,58,17.10
2009,08,04,07,59,17.10
2009,08,04,08,00,17.10
2009,08,04,08,01,17.10
2009,08,04,08,02,17.10
2009,08,04,08,03,17.10
2009,08,04,08,04,17.10
2009,08,04,08,05,17.10
2009,08,04,08,06,17.10
2009,08,04,08,07,17.10
2009,08,04,08,08,17.10
2009,08,04,08,09,17.10
2009,08,04,08,10,17.10
2009,08,04,08,11,17.10
2009,08,04,08,12,17.10
2009,08,04,08,13,17.10
2009,08,04,08,14,17.10
2009,08,04,08,15,17.20
2009,08,04,08,16,17.20
2009,08,04,08,17,17.30
2009,08,04,08,18,17.30
2009,08,04,08,19,17.40
2009,08,04,08,20,17.40
2009,08,04,08,21,17.50
2009,08,04,08,22,17.60
2009,08,04,08,23,17.60
2009,08,04,08,24,17.70
2009,08,04,08,25,17.70
2009,08,04,08,26,17.80
2009,08,04,08,27,17.80
2009,08,04,08,28,17.90
2009,08,04,08,29,17.90
2009,08,04,08,30,18.00
2009,08,04,08,31,18.00
2009,08,04,08,32,18.00
2009,08,04,08,33,18.00
2009,08,04,08,34,18.00
2009,08,04,08,35,18.00
2009,08,04,08,36,17.90
2009,08,04,08,37,17.90
2009,08,04,08,38,17.90
2009,08,04,08,39,17.90
2009,08,04,08,40,17.80
2009,08,04,08,41,17.80
2009,08,04,08,42,17.80
2009,08,04,08,43,17.80
2009,08,04,08,44,17.80
2009,08,04,08,45,17.70
2009,08,04,08,46,17.70
2009,08,04,08,47,17.70
2009,08,04,08,48,17.70
2009,08,04,08,49,17.70
2009,08,04,08,50,17.70
2009,08,04,08,51,17.80
2009,08,04,08,52,17.80
2009,08,04,08,53,17.80
2009,08,04,08,54,17.80
2009,08,04,08,55,17.80
2009,08,04,08,56,17.80
2009,08,04,08,57,17.80
2009,08,04,08,58,17.90
2009,08,04,08,59,17.90
2009,08,04,09,00,18.00
2009,08,04,09,01,18.10
2009,08,04,09,02,18.20
2009,08,04,09,03,18.20
2009,08,04,09,04,18.20
2009,08,04,09,05,18.10
2009,08,04,09,06,18.10
2009,08,04,09,07,18.10
2009,08,04,09,08,18.10
2009,08,04,09,09,18.10
2009,08,04,09,10,18.10
2009,08,04,09,11,18.10
2009,08,04,09,12,18.00
2009,08,04,09,13,18.00
2009,08,04,09,14,18.00
2009,08,04,09,15,18.00
2009,08,04,09,16,18.00
2009,08,04,09,17,18.00
2009,08,04,09,18,18.00
2009,08,04,09,19,18.10
2009,08,04,09,20,18.10
2009,08,04,09,21,18.10
2009,08,04,09,22,18.10
2009,08,04,09,23,18.10
2009,08,04,09,24,18.10
2009,08,04,09,25,18.10
2009,08,04,09,26,18.10
2009,08,04,09,27,18.10
2009,08,04,09,28,18.10
2009,08,04,09,29,18.10
2009,08,04,09,30,18.10
2009,08,04,09,31,18.10
2009,08,04,09,32,18.10
2009,08,04,09,33,18.10
2009,08,04,09,34,18.00
2009,08,04,09,35,18.10
2009,08,04,09,36,18.10
2009,08,04,09,37,18.10
2009,08,04,09,38,18.20
2009,08,04,09,39,18.20
2009,08,04,09,40,18.20
2009,08,04,09,41,18.20
2009,08,04,09,42,18.20
2009,08,04,09,43,18.20
2009,08,04,09,44,18.20
2009,08,04,09,45,18.20
2009,08,04,09,46,18.20
2009,08,04,09,47,18.20
2009,08,04,09,48,18.30
2009,08,04,09,49,18.30
2009,08,04,09,50,18.40
2009,08,04,09,51,18.40
2009,08,04,09,52,18.40
2009,08,04,09,53,18.40
2009,08,04,09,54,18.50
2009,08,04,09,55,18.50
2009,08,04,09,56,18.60
2009,08,04,09,57,18.60
2009,08,04,09,58,18.60
2009,08,04,09,59,18.60
2009,08,04,10,00,18.60
2009,08,04,10,01,18.60
2009,08,04,10,02,18.60
2009,08,04,10,03,18.70
2009,08,04,10,04,18.70
2009,08,04,10,05,18.70
2009,08,04,10,06,18.70
2009,08,04,10,07,18.70
2009,08,04,10,08,18.70
2009,08,04,10,09,18.70
2009,08,04,10,10,18.80
2009,08,04,10,11,18.80
2009,08,04,10,12,18.80
2009,08,04,10,13,18.80
2009,08,04,10,14,18.80
2009,08,04,10,15,18.90
2009,08,04,10,16,18.90
2009,08,04,10,17,18.90
2009,08,04,10,18,18.90
2009,08,04,10,19,18.80
2009,08,04,10,20,18.80
2009,08,04,10,21,18.80
2009,08,04,10,22,18.80
2009,08,04,10,23,18.80
2009,08,04,10,24,18.90
2009,08,04,10,25,18.90
2009,08,04,10,26,18.90
2009,08,04,10,27,18.90
2009,08,04,10,28,18.90
2009,08,04,10,29,18.90
2009,08,04,10,30,18.90
2009,08,04,10,31,18.90
2009,08,04,10,32,18.90
2009,08,04,10,33,19.00
2009,08,04,10,34,19.10
2009,08,04,10,35,19.20
2009,08,04,10,36,19.30
2009,08,04,10,37,19.30
2009,08,04,10,38,19.40
2009,08,04,10,39,19.50
2009,08,04,10,40,19.70
2009,08,04,10,41,19.80
2009,08,04,10,42,19.80
2009,08,04,10,43,19.90
2009,08,04,10,44,19.90
2009,08,04,10,45,19.90
2009,08,04,10,46,19.90
2009,08,04,10,47,19.90
2009,08,04,10,48,19.90
2009,08,04,10,49,19.80
2009,08,04,10,50,19.80
2009,08,04,10,51,19.80
2009,08,04,10,52,19.80
2009,08,04,10,53,19.80
2009,08,04,10,54,19.70
2009,08,04,10,55,19.50
2009,08,04,10,56,19.40
2009,08,04,10,57,19.30
2009,08,04,10,58,19.20
2009,08,04,10,59,19.10
2009,08,04,11,00,19.10
2009,08,04,11,01,19.10
2009,08,04,11,02,19.10
2009,08,04,11,03,19.10
2009,08,04,11,04,19.10
2009,08,04,11,05,19.10
2009,08,04,11,06,19.20
2009,08,04,11,07,19.30
2009,08,04,11,08,19.40
2009,08,04,11,09,19.40
2009,08,04,11,10,19.50
2009,08,04,11,11,19.40
2009,08,04,11,12,19.40
2009,08,04,11,13,19.50
2009,08,04,11,14,19.50
2009,08,04,11,15,19.60
2009,08,04,11,16,19.70
2009,08,04,11,17,19.70
2009,08,04,11,18,19.70
2009,08,04,11,19,19.60
2009,08,04,11,20,19.60
2009,08,04,11,21,19.50
2009,08,04,11,22,19.30
2009,08,04,11,23,19.20
2009,08,04,11,24,19.20
2009,08,04,11,25,19.20
2009,08,04,11,26,19.30
2009,08,04,11,27,19.30
2009,08,04,11,28,19.30
2009,08,04,11,29,19.30
2009,08,04,11,30,19.30
2009,08,04,11,31,19.30
2009,08,04,11,32,19.30
2009,08,04,11,33,19.30
2009,08,04,11,34,19.30
2009,08,04,11,35,19.30
2009,08,04,11,36,19.30
2009,08,04,11,37,19.40
2009,08,04,11,38,19.40
2009,08,04,11,39,19.40
2009,08,04,11,40,19.40
2009,08,04,11,41,19.50
2009,08,04,11,42,19.60
2009,08,04,11,43,19.70
2009,08,04,11,44,19.80
2009,08,04,11,45,19.90
2009,08,04,11,46,20.00
2009,08,04,11,47,20.00
2009,08,04,11,48,20.10
2009,08,04,11,49,20.20
2009,08,04,11,50,20.30
2009,08,04,11,51,20.20
2009,08,04,11,52,20.20
2009,08,04,11,53,20.30
2009,08,04,11,54,20.30
2009,08,04,11,55,20.40
2009,08,04,11,56,20.40
2009,08,04,11,57,20.50
2009,08,04,11,58,20.30
2009,08,04,11,59,20.20
2009,08,04,12,00,20.00
2009,08,04,12,01,20.00
2009,08,04,12,02,20.10
2009,08,04,12,03,20.10
2009,08,04,12,04,20.10
2009,08,04,12,05,20.20
2009,08,04,12,06,20.30
2009,08,04,12,07,20.30
2009,08,04,12,08,20.40
2009,08,04,12,09,20.60
2009,08,04,12,10,20.70
2009,08,04,12,11,20.70
2009,08,04,12,12,20.70
2009,08,04,12,13,20.60
2009,08,04,12,14,20.50
2009,08,04,12,15,20.30
2009,08,04,12,16,20.30
2009,08,04,12,17,20.30
2009,08,04,12,18,20.40
2009,08,04,12,19,20.40
2009,08,04,12,20,20.40
2009,08,04,12,21,20.30
2009,08,04,12,22,20.40
2009,08,04,12,23,20.40
2009,08,04,12,24,20.30
2009,08,04,12,25,20.20
2009,08,04,12,26,20.10
2009,08,04,12,27,20.00
2009,08,04,12,28,20.00
2009,08,04,12,29,20.00
2009,08,04,12,30,20.00
2009,08,04,12,31,20.10
2009,08,04,12,32,20.20
2009,08,04,12,33,20.20
2009,08,04,12,34,20.20
2009,08,04,12,35,20.30
2009,08,04,12,36,20.30
2009,08,04,12,37,20.30
2009,08,04,12,38,20.40
2009,08,04,12,39,20.40
2009,08,04,12,40,20.50
2009,08,04,12,41,20.60
2009,08,04,12,42,20.60
2009,08,04,12,43,20.50
2009,08,04,12,44,20.40
2009,08,04,12,45,20.40
2009,08,04,12,46,20.40
2009,08,04,12,47,20.50
2009,08,04,12,48,20.50
2009,08,04,12,49,20.60
2009,08,04,12,50,20.70
2009,08,04,12,51,20.80
2009,08,04,12,52,20.90
2009,08,04,12,53,20.90
2009,08,04,12,54,21.00
2009,08,04,12,55,21.20
2009,08,04,12,56,21.30
2009,08,04,12,57,21.50
2009,08,04,12,58,21.60
2009,08,04,12,59,21.70
2009,08,04,13,00,21.70
2009,08,04,13,01,21.60
2009,08,04,13,02,21.50
2009,08,04,13,03,21.50
2009,08,04,13,04,21.40
2009,08,04,13,05,21.30
2009,08,04,13,06,21.10
2009,08,04,13,07,20.90
2009,08,04,13,08,20.70
2009,08,04,13,09,20.70
2009,08,04,13,10,20.60
2009,08,04,13,11,20.50
2009,08,04,13,12,20.50
2009,08,04,13,13,20.70
2009,08,04,13,14,20.70
2009,08,04,13,15,20.70
2009,08,04,13,16,20.70
2009,08,04,13,17,20.80
2009,08,04,13,18,20.80
2009,08,04,13,19,20.60
2009,08,04,13,20,20.60
2009,08,04,13,21,20.40
2009,08,04,13,22,20.40
2009,08,04,13,23,20.50
2009,08,04,13,24,20.60
2009,08,04,13,25,20.80
2009,08,04,13,26,20.90
2009,08,04,13,27,20.90
2009,08,04,13,28,20.90
2009,08,04,13,29,20.80
2009,08,04,13,30,20.70
2009,08,04,13,31,20.60
2009,08,04,13,32,20.50
2009,08,04,13,33,20.40
2009,08,04,13,34,20.30
2009,08,04,13,35,20.40
2009,08,04,13,36,20.40
2009,08,04,13,37,20.30
2009,08,04,13,38,20.30
2009,08,04,13,39,20.30
2009,08,04,13,40,20.40
2009,08,04,13,41,20.50
2009,08,04,13,42,20.60
2009,08,04,13,43,20.60
2009,08,04,13,44,20.50
2009,08,04,13,45,20.50
2009,08,04,13,46,20.50
2009,08,04,13,47,20.50
2009,08,04,13,48,20.50
2009,08,04,13,49,20.60
2009,08,04,13,50,20.50
2009,08,04,13,51,20.60
2009,08,04,13,52,20.70
2009,08,04,13,53,20.60
2009,08,04,13,54,20.60
2009,08,04,13,55,20.50
2009,08,04,13,56,20.40
2009,08,04,13,57,20.40
2009,08,04,13,58,20.40
2009,08,04,13,59,20.40
2009,08,04,14,00,20.30
2009,08,04,14,01,20.30
2009,08,04,14,02,20.20
2009,08,04,14,03,20.10
2009,08,04,14,04,20.00
2009,08,04,14,05,20.10
2009,08,04,14,06,20.30
2009,08,04,14,07,20.40
2009,08,04,14,08,20.40
2009,08,04,14,09,20.50
2009,08,04,14,10,20.60
2009,08,04,14,11,20.60
2009,08,04,14,12,20.70
2009,08,04,14,13,20.80
2009,08,04,14,14,20.80
2009,08,04,14,15,20.80
2009,08,04,14,16,20.80
2009,08,04,14,17,20.70
2009,08,04,14,18,20.70
2009,08,04,14,19,20.70
2009,08,04,14,20,20.70
2009,08,04,14,21,20.80
2009,08,04,14,22,20.90
2009,08,04,14,23,20.80
2009,08,04,14,24,20.80
2009,08,04,14,25,20.80
2009,08,04,14,26,20.70
2009,08,04,14,27,20.70
2009,08,04,14,28,20.70
2009,08,04,14,29,20.80
2009,08,04,14,30,21.00
2009,08,04,14,31,21.20
2009,08,04,14,32,21.20
2009,08,04,14,33,21.20
2009,08,04,14,34,21.20
2009,08,04,14,35,21.10
2009,08,04,14,36,20.90
2009,08,04,14,37,20.80
2009,08,04,14,38,20.80
2009,08,04,14,39,20.80
2009,08,04,14,40,20.80
2009,08,04,14,41,20.70
2009,08,04,14,42,20.60
2009,08,04,14,43,20.60
2009,08,04,14,44,20.60
2009,08,04,14,45,20.60
2009,08,04,14,46,20.50
2009,08,04,14,47,20.40
2009,08,04,14,48,20.40
2009,08,04,14,49,20.30
2009,08,04,14,50,20.30
2009,08,04,14,51,20.30
2009,08,04,14,52,20.30
2009,08,04,14,53,20.50
2009,08,04,14,54,20.60
2009,08,04,14,55,20.50
2009,08,04,14,56,20.50
2009,08,04,14,57,20.50
2009,08,04,14,58,20.40
2009,08,04,14,59,20.40
2009,08,04,15,00,20.50
2009,08,04,15,01,20.50
2009,08,04,15,02,20.40
2009,08,04,15,03,20.50
2009,08,04,15,04,20.50
2009,08,04,15,05,20.50
2009,08,04,15,06,20.40
2009,08,04,15,07,20.50
2009,08,04,15,08,20.50
2009,08,04,15,09,20.60
2009,08,04,15,10,20.60
2009,08,04,15,11,20.60
2009,08,04,15,12,20.50
2009,08,04,15,13,20.40
2009,08,04,15,14,20.50
2009,08,04,15,15,20.50
2009,08,04,15,16,20.60
2009,08,04,15,17,20.60
2009,08,04,15,18,20.70
2009,08,04,15,19,20.70
2009,08,04,15,20,20.70
2009,08,04,15,21,20.80
2009,08,04,15,22,20.80
2009,08,04,15,23,20.80
2009,08,04,15,24,20.80
2009,08,04,15,25,20.80
2009,08,04,15,26,20.80
2009,08,04,15,27,20.70
2009,08,04,15,28,20.70
2009,08,04,15,29,20.60
2009,08,04,15,30,20.60
2009,08,04,15,31,20.50
2009,08,04,15,32,20.50
2009,08,04,15,33,20.50
2009,08,04,15,34,20.50
2009,08,04,15,35,20.50
2009,08,04,15,36,20.50
2009,08,04,15,37,20.60
2009,08,04,15,38,20.60
2009,08,04,15,39,20.60
2009,08,04,15,40,20.60
2009,08,04,15,41,20.70
2009,08,04,15,42,20.80
2009,08,04,15,43,21.00
2009,08,04,15,44,21.10
2009,08,04,15,45,21.20
2009,08,04,15,46,21.30
2009,08,04,15,47,21.40
2009,08,04,15,48,21.50
2009,08,04,15,49,21.60
2009,08,04,15,50,21.70
2009,08,04,15,51,21.70
2009,08,04,15,52,21.60
2009,08,04,15,53,21.50
2009,08,04,15,54,21.50
2009,08,04,15,55,21.50
2009,08,04,15,56,21.50
2009,08,04,15,57,21.40
2009,08,04,15,58,21.30
2009,08,04,15,59,21.30
2009,08,04,16,00,21.30
2009,08,04,16,01,21.30
2009,08,04,16,02,21.30
2009,08,04,16,03,21.30
2009,08,04,16,04,21.30
2009,08,04,16,05,21.20
2009,08,04,16,06,21.20
2009,08,04,16,07,21.20
2009,08,04,16,08,21.20
2009,08,04,16,09,21.20
2009,08,04,16,10,21.20
2009,08,04,16,11,21.20
2009,08,04,16,12,21.10
2009,08,04,16,13,21.10
2009,08,04,16,14,21.00
2009,08,04,16,15,21.00
2009,08,04,16,16,21.00
2009,08,04,16,17,20.90
2009,08,04,16,18,20.90
2009,08,04,16,19,20.90
2009,08,04,16,20,20.90
2009,08,04,16,21,20.90
2009,08,04,16,22,20.90
2009,08,04,16,23,20.90
2009,08,04,16,24,21.00
2009,08,04,16,25,21.00
2009,08,04,16,26,20.90
2009,08,04,16,27,20.80
2009,08,04,16,28,20.80
2009,08,04,16,29,20.80
2009,08,04,16,30,20.70
2009,08,04,16,31,20.70
2009,08,04,16,32,20.70
2009,08,04,16,33,20.70
2009,08,04,16,34,20.60
2009,08,04,16,35,20.50
2009,08,04,16,36,20.50
2009,08,04,16,37,20.50
2009,08,04,16,38,20.50
2009,08,04,16,39,20.60
2009,08,04,16,40,20.60
2009,08,04,16,41,20.60
2009,08,04,16,42,20.60
2009,08,04,16,43,20.50
2009,08,04,16,44,20.50
2009,08,04,16,45,20.50
2009,08,04,16,46,20.50
2009,08,04,16,47,20.50
2009,08,04,16,48,20.50
2009,08,04,16,49,20.50
2009,08,04,16,50,20.60
2009,08,04,16,51,20.60
2009,08,04,16,52,20.60
2009,08,04,16,53,20.70
2009,08,04,16,54,20.70
2009,08,04,16,55,20.70
2009,08,04,16,56,20.80
2009,08,04,16,57,20.90
2009,08,04,16,58,21.00
2009,08,04,16,59,21.10
2009,08,04,17,00,21.10
2009,08,04,17,01,21.10
2009,08,04,17,02,21.10
2009,08,04,17,03,21.20
2009,08,04,17,04,21.20
2009,08,04,17,05,21.20
2009,08,04,17,06,21.10
2009,08,04,17,07,21.10
2009,08,04,17,08,21.00
2009,08,04,17,09,21.00
2009,08,04,17,10,21.00
2009,08,04,17,11,21.10
2009,08,04,17,12,21.10
2009,08,04,17,13,21.10
2009,08,04,17,14,21.20
2009,08,04,17,15,21.10
2009,08,04,17,16,21.10
2009,08,04,17,17,21.20
2009,08,04,17,18,21.30
2009,08,04,17,19,21.30
2009,08,04,17,20,21.40
2009,08,04,17,21,21.40
2009,08,04,17,22,21.40
2009,08,04,17,23,21.40